Weather Roundup
Issued by NWS Chicago, IL

Home | Current Version | Previous Version | Graphics & Text | Print | Product List | Glossary On
Versions: 1 2 3 4 5 6 7 8 9 10 11 12 13 14 15 16 17 18 19 20 21 22 23 24 25 26 27 28 29 30 31 32 33 34 35 36 37 38 39 40 41 42 43 44 45 46 47 48 49 50
000
NZUS59 KLOT 080508
HRRLOT

CHICAGO AREA WEATHER ROUNDUP
NATIONAL WEATHER SERVICE CHICAGO/ROMEOVILLE IL
1100 PM CST SUN FEB 07 2016

NOTE: "FAIR" INDICATES FEW OR NO CLOUDS BELOW 12,000 FEET WITH NO
SIGNIFICANT WEATHER AND/OR OBSTRUCTIONS TO VISIBILITY.

* THESE STATIONS ARE NOT UNDER NWS QUALITY CONTROL. THEY ALSO MAY NOT
  REPORT WEATHER SUCH AS PRECIPITATION OR FOG.

ILZ005-006-012>014-019>023-080600-
NORTHEAST ILLINOIS

CITY           SKY/WX    TMP DP  RH WIND       PRES   REMARKS
OHARE          PTCLDY    33  27  78 W8        29.70F WCI  26
MIDWAY         PTCLDY    36  26  67 SW9       29.71F
AURORA         CLEAR     33  27  78 SW8       29.71F WCI  26
LANSING*       CLEAR     33  27  79 W7        29.72F WCI  27
WAUKEGAN       CLEAR     32  27  81 SW8       29.66F WCI  25
DUPAGE AIRPORT CLEAR     31  25  78 SW7       29.70F WCI  24
WHEELING       CLEAR     34  27  75 SW7       29.71F WCI  28
KANKAKEE*      CLOUDY    34  28  80 W8        29.75F WCI  27
MORRIS*        CLEAR     32  28  84 SW5       29.72S WCI  27
LEWIS AIRPORT* CLEAR     32  27  83 SW7       29.72F WCI  26
$$

WIZ051-052-058>065-066-070>072-080600-
SOUTHEAST WISCONSIN

CITY           SKY/WX    TMP DP  RH WIND       PRES   REMARKS
MILWAUKEE      CLEAR     34  27  75 W8        29.64F WCI  27
KENOSHA*       CLEAR     32  27  81 W10       29.66F WCI  24
RACINE*        CLEAR     33  26  75 W8        29.66F WCI  26
BURLINGTON     CLEAR     31  26  84 W7        29.65F WCI  24
WAUKESHA       CLEAR     32  27  80 SW8       29.64F WCI  25
$$

INZ001>003-010>013-019-020-080600-
NORTHWEST INDIANA

CITY           SKY/WX    TMP DP  RH WIND       PRES   REMARKS
GARY*          CLEAR     37  26  62 SW7       29.73F
MICHIGAN CITY* NOT AVBL
RENSSELAER*    NOT AVBL
VALPARAISO     PTCLDY    34  27  75 W10       29.72F WCI  26
$$

LMZ740>746-080600-
SOUTHERN LAKE MICHIGAN

STATION/POSITION TIME  SKY/WX   TEMP WIND        PRES    VSBY
                                AIR  DIR/SP/G
                 (UTC)          (F)  (DEG/KT/KT) (MB)    (MI)
HARRISON CRIB    0400            39  260/ 18/ 20   N/A
BURNHAM HARBOR   0500            36  260/  9/ 11   N/A
CALUMET HARBOR   0400            37  240/  7/ 12 1006.2F
BURNS HARBOR     0400            38  250/ 13/ 15 1007.5F
MICHIGAN CITY    0400            35  220/ 12/ 13   N/A
$$

ABBREVIATIONS USED IN REMARKS
   TC - TEMPERATURE IN CELSIUS
  WCI - WIND CHILL INDEX
   HX - HEAT INDEX
  VSB - VISIBILITY
$$



USA.gov is the U.S. government's official web portal to all federal, state and local government web resources and services.